Location: Campolattaro
(41.2833°N, 14.7333°E)
Time: 21:25:04
(UTC+00:00)

USA 229 DEB - Pass Details

Date: 19 May 2025
Orbit: 872 x 1339 km, 63.4° (Epoch: 14 June)

Event Time Altitude Azimuth Distance (km) Brightness Sun altitude
Exits shadow 23:20:44 35° 269° (W) 1,488 4.3 -28.5°
Maximum altitude 23:22:43 46° 314° (NW) 1,286 4.3 -28.5°
Drops below altitude 10° 23:29:08 10° 27° (NNE) 2,875 6.8 -28.3°
Sets 23:32:04 0° 33° (NNE) 3,909 7.6 -28.2°
